Theta_e
349 349 349 348 348 350 350 350 351 351 350 351 353 353 352 352 353 353 352 352 352 352 352 354 354 354 354 354 354 354 354 353 353 354 355 356 356 357 357 357 357 357 356 356 355 355 355 352 352 352 352 349 347 348 349 350 351 350 350 349 349 351 351 351 352 352 351 351 351 350 350 349 348 347 346 347 348 349 348 347 346 344 343 341 339
349 349 349 349 349 349 349 350 350 350 350 350 351 352 352 352 353 354 353 353 353 353 353 354 356 356 355 355 354 354 354 354 353 353 354 355 356 356 357 357 357 356 356 355 354 354 354 352 352 353 354 352 350 348 348 349 351 352 351 350 349 349 349 351 351 352 352 352 351 351 350 350 350 349 348 348 349 349 348 347 346 345 344 343 342
350 349 349 349 350 349 349 350 350 350 350 350 350 351 352 352 353 354 354 354 354 354 354 354 355 356 356 357 356 355 355 355 354 354 354 354 355 356 356 356 356 356 355 354 353 353 354 353 351 352 354 354 353 351 350 351 352 354 353 351 350 350 350 350 350 350 351 351 351 350 350 350 350 349 350 349 349 350 349 348 348 347 346 345 344
351 351 350 350 350 350 350 350 350 350 350 349 349 350 351 352 353 354 354 354 354 354 355 355 355 355 356 356 356 356 356 355 355 354 354 354 354 355 356 356 356 356 354 353 353 353 354 354 353 353 354 355 355 354 353 353 354 355 355 352 350 350 352 352 352 351 350 350 349 349 349 349 349 349 349 350 349 350 350 350 350 349 347 345 344
352 352 351 351 351 351 351 351 351 351 350 350 349 349 350 350 351 352 353 354 354 354 355 355 355 355 355 355 354 355 355 355 355 354 354 354 354 355 355 356 356 356 356 355 354 354 355 356 356 356 357 357 356 355 354 353 353 354 355 355 353 353 354 354 354 353 352 351 350 350 350 350 350 350 350 350 350 350 350 350 350 348 345 344 343
352 353 353 353 352 352 352 352 352 352 351 351 351 351 351 350 350 351 352 353 354 354 355 355 354 354 354 354 353 352 353 353 354 354 353 354 354 355 355 355 355 355 355 356 356 355 354 355 355 356 356 357 356 356 355 354 354 353 354 354 354 355 355 355 355 355 354 353 352 352 352 352 352 351 351 351 352 351 350 348 347 346 345 345 343
352 353 354 355 354 354 354 353 354 353 353 353 353 353 353 352 352 351 351 352 353 353 353 353 353 354 354 353 353 352 351 352 352 353 353 354 354 354 354 355 355 354 354 355 355 355 354 353 354 354 354 355 355 356 355 356 355 355 355 354 354 355 355 355 355 355 355 354 354 353 353 353 353 352 352 352 352 352 350 349 348 347 347 347 346
351 352 353 354 355 356 356 355 355 354 354 354 354 354 354 354 354 353 353 353 353 354 353 353 353 354 353 353 353 353 352 351 352 352 352 353 353 354 353 354 354 353 352 353 353 354 354 354 354 354 354 354 354 355 356 356 356 356 356 356 356 356 356 356 356 355 355 354 354 354 353 353 353 352 352 352 351 351 350 351 351 350 349 348 348
351 351 350 352 353 354 355 356 356 356 356 356 356 356 355 355 355 355 355 355 354 354 354 353 353 353 352 352 351 352 352 352 351 351 351 351 352 353 353 353 353 353 352 352 353 353 353 353 353 353 353 354 354 355 355 355 356 356 356 356 356 356 356 356 356 356 355 354 354 354 353 353 353 353 353 352 352 352 351 352 352 351 351 351 350
349 350 350 350 351 352 352 353 354 354 355 355 355 355 355 355 355 355 354 354 353 353 352 352 352 352 351 350 350 350 351 351 351 350 350 351 351 352 353 352 353 353 353 352 352 352 352 352 352 353 353 353 354 354 355 355 355 355 356 355 356 356 356 356 356 355 355 354 354 354 353 353 353 352 352 352 352 352 352 352 352 352 352 353 351
349 349 350 351 351 351 351 351 351 351 352 352 353 353 354 354 354 354 353 352 351 350 350 350 349 349 350 349 349 349 349 350 350 350 350 350 351 352 353 353 353 352 353 353 352 352 352 351 351 351 351 352 353 353 354 354 354 354 355 355 355 355 355 355 355 355 355 354 354 354 353 353 351 350 350 350 349 350 351 352 353 353 353 354 353
349 350 351 351 351 350 350 350 350 350 350 351 352 352 352 352 352 351 351 350 349 349 348 348 348 348 348 348 348 348 348 348 348 348 348 349 350 351 352 352 353 353 353 353 353 352 352 351 352 351 351 351 351 352 353 352 352 353 353 354 354 354 354 354 353 353 353 354 353 353 352 352 351 348 348 348 347 348 350 351 352 353 353 353 354
346 347 349 349 350 350 350 350 350 350 350 350 351 351 350 350 350 350 350 349 349 348 348 348 348 348 348 348 348 347 347 347 348 349 349 349 349 350 351 351 352 352 353 353 353 353 353 352 352 352 352 352 351 351 352 352 351 351 351 351 352 351 352 352 352 352 351 351 352 351 350 350 349 348 345 346 348 348 350 351 351 352 353 353 354
341 342 343 344 345 346 348 350 350 349 350 350 350 350 349 348 348 349 349 349 349 349 349 349 349 349 349 350 349 349 348 347 348 349 350 350 349 349 349 350 350 351 351 352 352 353 352 352 353 352 352 352 351 352 351 351 352 351 351 351 350 350 350 350 350 350 350 350 350 349 348 348 348 347 345 346 348 348 349 350 351 353 353 353 353
337 339 340 341 341 342 345 347 348 348 348 347 347 348 347 347 347 347 347 348 348 349 349 349 349 349 350 350 350 351 351 351 350 349 349 350 351 351 351 350 350 350 350 351 351 352 352 352 352 352 352 352 351 352 352 353 353 353 353 353 352 352 351 351 350 350 350 350 349 349 349 348 348 347 346 347 348 348 349 350 351 352 352 352 352
333 335 338 339 340 340 341 343 343 343 342 342 342 342 341 341 341 342 343 344 344 345 346 347 347 347 347 348 350 350 350 351 352 352 351 351 351 352 352 352 352 351 350 350 350 350 350 351 352 352 352 352 353 353 353 354 354 354 354 353 353 353 353 352 351 351 351 351 350 349 349 349 347 346 346 346 347 347 349 350 350 350 350 350 350
329 331 334 336 338 339 340 340 341 342 342 342 342 341 340 340 339 340 341 342 342 341 342 343 344 346 346 346 347 347 346 348 350 352 352 352 352 353 353 353 353 352 352 351 350 349 349 349 350 350 350 351 351 351 352 352 353 353 353 353 353 352 352 352 351 351 351 350 350 349 348 347 346 345 345 345 346 347 348 349 350 350 349 350 350
327 329 331 334 337 339 340 341 341 341 340 340 341 342 343 343 343 342 342 341 340 339 338 339 339 341 342 342 341 340 341 343 346 349 351 352 352 353 354 354 354 354 353 352 351 351 350 349 349 349 349 349 349 349 349 349 350 351 351 351 351 351 351 350 350 350 350 349 349 348 348 347 347 347 347 347 347 347 348 349 351 351 349 349 350
326 328 330 332 334 336 336 336 337 338 338 339 340 343 344 343 343 343 340 338 336 335 334 334 334 334 335 336 336 336 338 340 342 344 346 349 350 351 352 353 353 353 353 353 353 352 352 352 351 351 351 351 350 350 350 350 349 350 350 349 349 350 350 349 349 349 349 349 349 349 348 349 349 348 349 350 350 350 350 351 352 352 350 351 350
326 328 330 330 331 331 331 333 335 337 338 338 338 339 339 338 337 336 334 332 330 330 330 330 329 330 331 332 333 335 337 339 337 337 339 343 346 348 350 350 350 350 350 350 351 351 352 352 352 352 352 352 353 352 352 352 351 351 350 350 350 350 350 350 350 350 350 350 350 351 351 351 351 351 352 353 354 354 354 354 355 354 353 352 351
326 327 329 330 330 331 331 332 333 334 333 333 332 330 330 330 330 329 328 328 328 328 328 327 327 328 328 329 331 333 336 336 334 333 334 335 338 341 343 344 344 345 346 347 347 348 349 349 350 351 352 352 352 353 353 353 353 352 352 352 352 352 352 352 352 352 352 353 353 354 354 354 354 355 356 356 356 356 357 356 356 355 354 354 353
326 326 327 328 329 329 330 330 329 329 329 329 329 327 326 326 326 326 325 326 325 324 323 323 325 326 327 328 329 331 333 333 332 333 333 333 334 335 336 336 337 339 340 341 341 342 343 345 346 347 349 350 351 352 353 354 354 354 354 353 352 352 352 352 352 352 352 353 353 354 354 355 355 356 356 356 356 356 355 355 355 354 354 353 353
326 325 325 327 327 326 326 326 325 324 324 324 324 324 323 324 323 321 320 319 319 318 318 319 322 325 327 328 328 329 331 331 331 332 332 333 333 333 333 333 333 333 334 334 335 336 337 339 341 342 344 346 347 349 350 351 352 353 353 353 353 353 352 352 352 352 352 352 351 352 352 353 353 353 354 354 354 353 353 353 353 353 352 352 352
326 325 325 326 326 325 324 324 323 322 322 321 321 322 322 323 322 319 317 315 315 317 320 321 323 325 327 327 327 328 329 328 329 330 331 331 331 330 330 330 330 330 329 329 329 330 331 332 334 336 338 340 342 344 345 346 348 348 349 350 350 351 350 349 349 349 350 350 349 349 351 351 351 352 352 352 351 351 351 351 351 351 351 351 351
324 325 325 325 325 325 324 323 323 322 321 321 321 322 322 323 321 319 317 315 315 319 322 323 323 325 326 325 326 327 327 328 329 329 329 328 328 328 327 327 326 326 326 325 326 327 328 330 332 333 335 337 339 341 342 343 343 344 344 345 345 346 345 345 345 345 346 346 346 347 348 349 350 350 350 350 350 350 350 351 351 351 350 350 351
323 324 325 325 324 324 323 322 322 322 321 321 322 322 322 321 320 318 317 316 317 319 322 323 324 325 325 325 325 325 326 326 326 326 325 325 325 325 324 324 324 324 324 324 326 328 331 334 335 337 337 338 340 341 341 342 343 343 343 344 344 344 344 344 344 344 345 345 345 345 346 347 348 348 348 348 348 349 349 349 349 350 350 350 350
324 325 325 325 324 323 323 322 322 322 321 321 321 320 320 319 318 318 317 317 318 319 321 323 324 324 324 323 324 324 323 323 322 322 322 322 323 323 323 323 323 322 323 324 326 329 332 334 335 336 337 338 339 339 339 340 341 341 342 343 344 345 345 345 346 346 346 346 346 346 346 346 347 347 347 347 347 348 348 348 348 349 349 349 349
323 324 324 324 323 323 323 323 322 321 321 320 319 319 318 318 318 318 318 318 319 320 322 323 323 323 322 322 321 321 320 320 320 320 320 321 321 322 322 321 321 320 321 321 323 325 328 329 330 331 332 333 333 334 335 336 336 336 337 338 339 341 342 343 344 344 344 345 345 345 346 346 347 347 347 347 347 348 348 348 348 349 349 349 349
323 322 322 322 321 322 322 321 321 320 320 319 319 318 317 317 318 318 319 319 319 320 321 323 322 322 321 320 319 319 319 319 318 319 319 319 320 320 320 319 319 319 318 318 319 319 319 320 322 323 324 326 327 328 329 329 330 332 331 332 333 335 335 336 336 335 336 338 340 341 343 344 345 346 346 347 347 348 348 348 348 348 349 349 349
322 321 320 320 320 319 320 319 319 319 318 318 318 317 317 317 317 317 318 319 319 319 320 321 322 321 320 319 318 318 318 318 318 317 318 318 319 319 318 318 317 317 317 317 317 316 315 315 317 316 317 319 321 322 322 323 324 325 325 326 328 329 330 330 328 328 330 333 334 335 337 340 342 343 344 345 346 347 348 348 349 349 349 349 349
319 318 317 317 317 317 317 317 317 317 317 317 317 317 316 316 316 316 317 318 319 319 318 318 320 322 320 318 317 317 317 317 317 317 317 317 317 317 317 316 316 316 316 316 315 314 312 313 315 314 314 315 316 317 317 318 318 319 320 322 324 325 325 324 323 323 326 328 328 330 333 336 337 338 339 341 343 345 346 348 348 348 349 349 349
315 315 314 314 314 314 314 314 314 315 315 315 315 315 315 315 315 315 316 317 318 318 318 317 318 319 318 317 316 317 317 317 317 317 317 316 316 316 315 315 314 314 314 314 313 312 311 311 312 312 312 313 313 313 313 314 314 315 317 318 319 319 319 319 318 320 323 323 324 327 331 332 332 334 336 339 340 342 345 347 348 349 349 349 349
314 313 312 312 312 311 312 312 312 312 313 313 313 314 314 314 314 314 315 316 316 316 316 316 316 316 315 315 316 316 316 317 317 317 316 316 316 315 315 314 313 313 313 312 311 311 310 310 311 311 311 311 311 311 311 311 312 313 314 314 314 314 314 314 315 317 318 319 321 324 326 327 329 331 333 333 333 333 336 340 344 347 348 349 349
315 313 312 312 311 310 310 310 311 311 311 311 311 312 312 313 313 314 315 316 315 315 314 314 314 314 313 314 315 315 316 316 316 316 316 315 315 315 314 313 313 312 312 311 311 310 310 310 310 309 309 309 309 309 309 309 310 311 312 311 311 311 311 311 313 314 314 316 318 320 321 323 325 325 324 323 324 325 326 328 332 337 340 342 344
313 312 311 310 310 309 309 309 310 311 310 310 310 310 311 313 314 314 315 316 315 314 313 312 312 312 312 313 313 314 314 315 314 314 315 315 314 314 313 313 312 311 311 310 310 310 310 309 309 308 308 308 308 308 308 309 309 309 309 309 309 309 309 310 311 311 312 313 315 316 318 320 319 317 316 316 317 318 319 321 324 327 329 331 334
309 309 308 308 308 308 308 309 310 310 309 309 309 309 310 312 313 313 313 313 313 312 311 311 312 311 311 311 312 312 312 312 312 313 314 314 313 313 313 312 311 311 310 310 310 309 309 309 308 308 307 307 307 307 307 308 308 308 308 308 308 308 308 309 309 309 310 312 313 314 316 316 314 312 312 313 313 313 315 317 319 320 321 323 326
307 306 306 306 306 306 307 308 308 308 307 307 307 307 309 311 312 311 311 311 311 311 310 311 311 311 310 311 311 310 310 310 311 312 314 314 312 312 312 311 311 311 310 310 309 309 308 308 308 307 307 306 306 306 306 307 307 307 307 307 307 307 307 308 308 308 309 310 311 313 313 313 311 310 309 309 310 311 312 313 314 315 316 318 321
306 305 305 304 304 304 306 308 307 305 305 306 306 306 309 310 311 310 309 309 310 309 309 310 310 310 310 311 310 310 310 310 311 311 313 313 312 311 310 310 310 310 309 309 308 308 307 307 307 307 306 305 305 305 305 306 306 307 306 306 306 306 306 306 306 305 306 307 309 310 311 310 309 307 305 305 306 307 308 309 311 312 314 316 318
305 304 304 303 302 303 305 307 305 303 303 304 305 307 309 310 309 308 307 307 308 308 308 308 308 309 309 309 308 308 309 310 311 311 311 312 311 310 309 309 308 308 308 308 307 307 306 306 306 305 305 304 304 304 304 305 305 306 305 305 305 306 305 305 304 303 304 305 306 306 307 307 306 304 302 302 303 304 305 306 308 310 312 313 315
304 303 303 302 301 302 303 304 303 302 303 304 306 307 309 309 308 307 307 306 306 307 307 307 307 308 308 307 306 306 308 309 310 310 309 309 309 309 309 308 308 307 307 307 306 306 305 305 305 304 304 303 303 303 304 304 304 304 304 304 304 305 304 303 302 302 303 303 304 303 304 304 303 301 300 301 302 303 304 306 307 308 310 311 313
302 301 300 299 299 300 302 303 302 302 303 305 307 308 308 308 307 306 306 306 305 306 306 306 305 306 306 305 305 306 306 307 308 308 308 307 307 307 308 307 307 306 306 306 305 305 304 304 304 303 303 303 302 302 303 303 303 303 303 303 304 303 302 301 300 300 300 301 302 302 302 301 300 299 299 299 300 302 304 306 307 308 309 311 313
299 298 298 298 298 300 302 302 302 303 304 306 306 307 307 306 305 305 305 305 305 305 305 304 304 305 304 304 305 305 306 305 305 306 306 306 305 306 306 306 305 305 305 304 304 304 303 303 303 302 302 301 301 301 302 302 302 302 302 302 302 301 300 299 298 298 298 299 299 299 299 298 297 297 297 298 299 301 303 305 307 308 309 311 312
298 298 298 299 300 300 301 302 303 304 305 305 305 305 305 304 303 303 304 304 304 303 303 302 303 303 303 303 303 304 305 304 304 304 304 304 304 304 304 304 304 304 303 303 303 303 303 302 302 302 301 301 301 301 301 301 301 301 302 301 300 299 298 297 296 295 295 296 296 296 295 295 295 296 297 297 298 300 302 304 306 307 309 310 311
298 298 299 300 300 301 302 303 303 304 304 303 303 303 304 303 302 302 303 303 302 302 302 301 301 302 302 302 301 302 303 304 304 304 303 303 303 303 302 302 302 302 302 302 302 301 302 302 301 301 301 300 300 300 300 300 300 301 300 300 298 297 296 295 294 293 293 293 293 293 293 294 295 295 296 297 298 299 301 303 305 307 308 309 310
298 298 299 300 301 302 302 302 302 302 301 300 300 301 302 301 301 301 302 301 301 301 300 300 300 300 300 300 300 300 301 302 302 302 302 302 302 302 302 301 301 301 301 301 300 300 300 301 300 300 300 300 300 300 300 300 300 300 300 299 297 297 296 295 294 293 292 292 291 292 292 293 294 295 296 297 297 299 301 303 305 306 307 308 309
298 298 300 301 302 302 301 300 300 300 299 299 299 300 300 300 300 300 300 300 300 300 299 299 299 299 299 299 299 300 300 300 300 301 301 302 302 302 302 301 301 300 300 300 299 299 299 300 300 300 300 299 299 299 299 299 299 299 299 298 298 298 297 296 294 292 291 291 291 291 292 293 294 295 296 297 297 299 300 302 304 305 306 307 308
298 299 300 301 301 300 299 299 299 299 298 298 299 299 299 299 299 299 299 299 299 299 299 298 298 298 298 298 298 298 299 300 300 301 301 302 302 301 301 300 299 298 298 298 298 298 298 298 299 298 299 299 299 299 299 298 298 298 298 298 298 298 297 296 294 292 291 290 290 291 292 293 293 294 296 297 298 299 300 302 303 304 305 306 307
298 299 299 299 299 298 297 297 297 297 297 297 297 297 298 298 298 298 298 298 298 298 297 297 296 296 297 297 298 298 299 299 300 300 301 301 300 300 299 298 297 297 297 296 296 296 297 298 298 298 298 298 298 298 298 297 297 297 297 297 297 296 295 294 293 292 291 291 290 291 292 293 293 294 295 297 298 299 300 301 303 304 305 306 307
298 298 297 297 296 296 295 295 296 296 296 296 295 296 297 297 297 297 297 297 296 296 295 295 295 296 296 297 297 298 298 298 299 299 300 300 299 298 297 297 296 296 295 295 294 295 295 296 296 297 297 297 297 297 297 297 296 296 296 296 295 294 293 292 291 291 291 290 290 291 292 293 294 295 296 297 299 300 301 302 303 304 305 306 307
296 295 295 295 295 295 294 294 294 294 294 295 295 295 296 297 296 296 296 295 294 294 294 295 295 296 296 296 296 296 297 297 298 298 298 298 298 297 296 296 295 294 294 293 293 293 294 294 295 295 296 296 296 296 296 296 296 295 295 294 293 292 291 291 291 291 291 290 291 292 293 294 295 296 297 298 299 301 301 302 304 305 306 307 308
295 295 295 296 296 296 295 295 294 294 294 294 295 295 296 295 295 295 295 294 293 294 294 295 295 295 295 295 295 295 296 297 297 297 297 297 296 296 295 294 293 293 292 292 292 292 292 293 294 294 294 294 294 294 294 294 294 293 292 292 291 291 292 292 291 291 291 291 291 293 294 295 296 298 299 300 300 300 301 303 305 307 308 308 308
Wind_Speed
27 27 26 25 26 25 24 22 21 20 19 18 17 15 14 14 14 13 13 13 12 13 13 12 12 13 12 12 12 12 12 11 12 12 13 14 14 14 14 14 15 15 14 14 13 13 13 13 12 10 9 10 10 10 9 8 7 8 8 8 8 8 7 7 8 11 13 14 14 15 14 14 13 11 11 12 12 12 12 13 15 16 17 17 17
27 27 26 25 25 25 24 23 22 22 21 20 19 17 15 13 13 14 14 14 13 13 13 12 12 13 13 13 12 13 13 12 12 13 14 14 15 15 15 15 16 16 16 16 15 14 14 14 14 12 11 11 11 11 11 10 9 10 10 10 10 10 10 10 9 10 13 16 16 16 15 15 15 14 13 13 13 14 15 16 17 18 19 18 17
26 27 27 26 25 24 23 23 23 23 22 22 22 21 18 14 13 14 15 14 14 14 13 12 12 12 13 13 13 14 14 14 14 14 15 15 15 15 15 16 16 17 17 17 16 15 15 15 15 14 13 14 13 12 12 12 11 11 12 12 12 12 12 12 12 11 14 16 17 18 18 18 18 17 15 15 15 15 17 18 19 20 21 20 18
24 25 26 26 25 24 24 23 23 23 22 22 23 23 21 18 15 14 14 15 15 14 14 13 13 13 14 14 15 15 16 16 16 16 16 16 16 16 16 16 17 17 17 17 17 16 16 15 15 14 14 15 15 15 14 14 13 13 13 13 13 13 13 13 13 13 14 16 18 20 20 21 21 20 19 19 18 18 19 20 22 24 24 21 19
21 22 23 23 24 24 24 23 23 23 22 22 22 22 22 20 18 17 16 15 15 15 15 15 15 15 16 15 16 16 16 16 17 17 17 17 18 18 17 17 18 17 18 18 18 17 17 17 16 14 15 16 16 15 15 15 16 16 16 16 15 15 16 15 15 15 15 17 20 21 21 21 22 23 21 20 21 21 22 24 24 24 24 22 21
18 19 20 21 22 23 23 23 24 23 22 21 21 21 21 21 20 19 18 17 16 16 17 17 17 17 17 17 17 17 17 17 17 18 18 19 19 19 19 19 19 19 18 18 18 18 18 18 18 17 16 16 16 15 14 15 16 17 17 17 17 17 17 16 16 16 17 18 19 22 23 22 22 23 22 20 20 22 25 26 25 24 24 24 23
18 17 17 19 21 22 22 23 23 23 22 22 21 21 21 21 20 20 19 19 18 18 18 18 19 19 19 19 19 19 19 19 19 20 20 20 20 21 21 20 20 20 19 19 19 19 19 19 19 18 18 17 16 15 15 15 15 16 16 16 16 17 17 17 16 16 17 18 19 21 22 23 23 23 24 23 22 21 20 21 23 25 24 24 24
21 20 19 19 19 20 20 21 21 21 22 22 21 21 21 21 20 20 19 20 20 19 18 18 18 18 19 20 20 21 21 21 21 21 21 21 22 22 22 21 21 21 20 20 20 20 20 20 19 19 18 18 17 17 16 16 16 16 16 15 16 17 17 18 17 17 17 18 19 21 22 23 24 25 25 24 21 20 18 16 20 24 24 24 25
21 21 21 20 19 17 17 18 19 20 21 21 20 20 20 20 20 19 19 19 20 19 18 18 18 18 18 19 20 21 22 22 22 22 22 23 23 23 23 23 22 22 22 22 21 21 21 21 21 20 19 19 19 18 18 17 17 18 17 17 17 18 19 19 18 18 18 18 20 21 21 22 24 25 25 24 22 22 21 19 20 23 23 25 26
17 17 17 17 17 16 16 16 17 18 19 19 19 18 19 19 19 19 18 17 18 18 17 17 18 19 19 19 20 21 22 23 22 22 23 24 25 25 25 25 25 24 24 24 24 23 23 22 22 22 21 21 20 19 19 18 18 19 19 18 18 19 20 20 20 20 19 19 21 21 20 22 25 24 24 25 24 24 23 21 20 22 22 23 26
13 13 12 12 13 14 14 15 15 15 16 15 16 16 17 17 17 16 15 15 15 16 15 14 14 16 18 19 19 20 21 23 23 22 22 23 25 26 26 26 26 26 27 27 26 26 25 24 23 23 23 22 22 21 20 20 20 20 20 19 19 20 21 21 22 22 20 20 22 21 20 22 25 25 24 25 24 23 23 21 19 21 20 17 19
12 11 10 9 9 10 11 12 12 13 13 12 12 13 13 13 12 12 12 13 13 13 13 12 11 11 12 15 16 17 18 19 20 21 21 21 23 24 26 26 27 28 28 29 29 28 28 27 26 25 24 24 23 23 23 22 22 21 21 21 21 21 22 22 22 22 22 22 23 23 22 23 25 25 24 24 23 23 23 21 20 20 19 17 17
15 12 11 11 10 10 10 10 10 10 10 10 9 9 10 10 10 10 11 11 11 11 11 11 10 8 8 9 11 11 11 12 13 14 16 18 20 21 23 24 26 27 28 29 29 29 29 28 27 27 26 25 24 24 24 24 23 23 22 22 22 22 22 23 23 23 23 23 24 25 25 25 26 26 25 23 23 23 23 23 22 20 19 20 22
20 17 15 14 12 12 11 11 10 8 7 6 6 6 6 6 5 5 6 6 7 7 8 8 7 6 6 6 6 6 7 8 10 10 10 12 13 16 18 20 23 24 26 27 28 28 28 28 28 28 27 26 25 24 24 24 24 24 24 24 24 23 23 23 23 23 24 24 25 26 27 26 27 28 27 26 25 25 25 25 23 22 23 24 26
21 19 17 16 16 15 14 13 14 13 10 8 7 7 6 5 5 4 3 3 3 1 1 3 4 3 4 4 4 3 3 6 9 10 11 10 10 11 13 14 17 19 21 24 25 27 27 26 27 28 28 27 26 25 24 24 24 25 25 25 26 25 24 24 23 23 24 25 26 27 27 27 27 29 28 27 26 26 25 25 24 24 26 27 28
21 19 18 18 19 20 18 16 16 15 14 13 12 11 9 7 7 6 5 6 6 5 4 3 2 2 1 2 3 2 2 3 5 7 10 11 11 10 10 11 12 13 14 16 19 22 24 24 24 25 25 26 25 24 22 22 23 24 25 27 27 27 27 26 25 24 25 25 26 26 26 26 25 25 24 23 23 23 24 24 24 25 26 25 25
20 19 19 17 18 19 18 17 16 16 15 14 15 15 13 11 10 8 7 7 7 7 8 9 9 8 7 7 5 3 3 4 4 5 6 8 9 9 9 9 9 10 10 10 11 14 16 18 20 21 22 23 22 21 20 20 20 22 23 25 26 28 29 28 27 26 26 26 26 25 25 24 23 22 22 21 21 20 21 24 25 24 23 19 18
19 20 20 18 17 16 15 13 13 13 13 13 13 14 13 13 13 14 13 14 14 13 13 14 14 13 13 13 12 8 6 6 4 3 4 5 6 7 7 7 7 8 8 8 8 9 9 11 11 13 15 16 17 17 17 17 19 20 21 22 24 27 29 28 27 27 26 25 25 24 24 24 23 23 22 22 21 20 22 25 25 24 23 20 20
19 18 18 19 19 19 17 15 13 13 13 13 14 14 14 16 17 18 17 17 17 16 15 15 15 15 15 14 14 12 10 9 8 6 4 3 3 4 6 6 6 7 8 9 9 9 9 9 9 10 11 12 12 13 14 15 16 17 17 19 22 26 28 26 25 25 25 24 24 24 24 24 24 24 23 23 23 23 25 26 26 25 26 27 26
18 17 16 16 16 16 17 16 16 17 17 17 17 17 17 18 18 17 16 16 17 17 17 17 16 16 16 14 13 12 10 10 11 12 10 8 6 4 4 4 5 6 8 9 10 11 11 11 11 11 12 13 13 14 14 14 15 16 15 16 19 22 23 22 22 22 23 24 24 24 25 25 25 26 26 25 25 24 25 25 25 26 27 29 30
16 18 18 17 16 16 17 18 19 21 20 20 20 20 19 19 18 16 15 16 18 21 21 18 17 16 16 15 13 10 8 9 12 14 15 14 12 9 7 6 5 5 6 7 8 9 10 11 11 12 13 14 15 16 16 16 17 17 17 17 18 19 20 21 21 21 21 23 24 24 25 25 26 26 26 25 25 24 23 24 24 25 27 28 30
14 17 18 19 20 20 20 19 19 20 19 18 19 19 19 18 18 18 17 16 18 20 21 19 17 16 16 16 15 12 10 10 13 15 15 16 16 14 12 11 9 7 6 6 6 7 7 8 9 10 11 12 14 15 16 17 18 18 19 20 20 21 22 23 23 23 23 24 24 24 24 24 25 26 26 26 26 26 25 25 25 26 27 28 29
13 15 16 18 18 19 19 18 18 18 17 16 16 17 17 17 18 19 18 17 17 18 19 18 17 17 16 16 15 14 13 12 13 14 14 14 14 14 13 12 11 10 10 9 8 8 8 8 8 8 9 10 10 11 12 13 14 16 17 18 19 21 22 23 23 23 24 24 25 26 27 27 27 27 28 28 28 27 26 26 26 26 26 27 28
11 13 14 15 16 16 16 16 16 16 15 14 15 15 15 16 18 18 18 18 18 18 19 18 17 17 16 17 16 15 14 15 15 15 15 14 13 13 12 12 12 11 11 10 10 9 9 9 9 9 9 8 8 8 8 8 9 10 11 13 14 16 18 19 20 20 21 20 20 22 25 25 26 27 28 27 26 26 25 25 25 25 25 25 27
9 10 11 12 13 14 15 16 15 15 15 14 14 14 14 14 17 17 18 18 18 19 19 19 18 18 17 17 17 16 16 16 16 16 15 14 13 13 12 13 13 13 13 12 11 10 9 9 8 8 8 7 7 6 5 6 6 8 9 10 11 12 13 14 15 16 17 17 17 18 20 20 20 22 24 25 24 24 25 25 25 25 24 24 26
9 9 10 11 13 14 15 16 16 16 16 15 16 15 14 15 16 17 18 19 18 18 18 18 18 18 18 17 17 16 17 17 16 15 15 14 14 14 14 14 14 15 15 13 12 10 9 8 9 8 8 7 7 7 7 7 7 8 9 9 9 9 10 11 12 13 15 16 17 18 18 18 18 20 22 24 24 24 25 25 24 24 23 24 27
12 13 14 15 15 15 16 16 17 17 18 17 17 17 16 15 16 17 18 18 18 17 17 17 17 17 18 18 18 18 18 18 17 17 16 16 16 16 16 16 17 17 17 15 13 11 11 11 11 12 12 12 11 11 12 12 12 12 12 12 12 11 11 11 12 13 14 16 18 19 20 20 20 20 21 21 20 21 23 22 21 20 19 20 23
16 17 17 17 17 16 17 17 18 18 18 17 17 17 17 16 17 18 17 17 17 16 16 16 16 17 18 19 19 19 19 19 19 19 18 18 17 17 17 18 19 19 19 17 15 13 12 12 13 14 14 15 15 16 16 15 16 16 16 15 15 14 14 13 13 14 16 17 19 20 21 21 20 21 22 21 19 20 21 21 19 18 17 18 20
17 17 18 18 18 18 18 18 17 17 16 16 16 17 16 16 16 16 16 15 15 15 15 16 17 17 18 19 19 19 18 18 18 18 18 18 17 17 18 18 19 19 18 17 17 16 16 17 17 17 18 17 18 18 19 19 19 18 19 19 18 17 18 17 16 17 18 17 18 19 19 19 19 21 22 22 22 23 23 22 21 21 19 19 20
17 17 17 18 17 17 16 16 15 15 15 15 16 16 16 15 15 15 14 13 13 13 14 14 14 15 16 17 17 17 16 15 15 15 16 16 16 15 16 17 18 18 18 18 19 20 21 20 19 19 19 17 16 16 17 18 19 20 21 21 19 19 19 19 20 22 21 19 19 19 19 19 19 20 21 22 23 25 24 23 22 21 21 21 21
18 18 17 17 16 16 15 15 14 13 13 13 13 14 14 14 14 13 13 12 12 13 13 13 12 13 13 14 14 14 13 13 13 14 15 15 14 14 14 15 17 18 18 18 20 23 23 20 17 17 17 16 15 15 16 16 17 18 19 19 18 18 19 20 22 24 22 20 21 21 20 19 19 20 21 22 23 25 25 24 23 21 21 21 22
18 18 17 16 16 15 15 14 13 12 12 11 11 11 11 12 13 12 11 11 11 11 12 12 12 11 11 11 11 11 12 12 12 12 13 14 14 13 13 15 17 18 19 20 21 23 23 21 17 15 15 14 14 15 15 15 16 16 16 17 17 17 18 20 22 22 20 20 21 20 20 20 21 22 22 21 22 24 24 23 22 21 21 21 21
14 14 14 14 14 14 14 13 13 13 12 11 11 11 11 11 11 11 10 9 9 9 10 10 11 10 10 10 11 11 11 10 11 11 12 13 13 12 12 14 17 19 20 21 22 22 21 20 18 15 14 14 14 14 14 15 15 15 15 16 17 18 19 20 20 19 18 19 20 18 19 20 21 21 20 20 21 22 23 22 21 20 19 19 19
11 9 9 10 11 12 12 12 12 13 12 12 11 11 10 9 9 9 8 8 9 9 10 10 10 10 10 10 11 11 10 9 10 10 10 11 12 11 11 14 17 19 21 22 21 20 19 18 17 16 15 14 13 14 14 14 14 14 15 15 16 18 19 19 19 18 19 19 19 18 19 19 19 20 20 22 23 24 24 23 23 22 21 20 20
13 11 9 9 10 10 11 10 11 11 11 11 11 11 10 9 8 8 8 8 9 10 11 11 11 11 11 11 11 11 10 10 10 9 8 9 9 9 11 14 16 18 20 19 18 17 16 15 15 16 16 16 15 14 13 13 13 13 14 15 17 18 19 18 18 19 20 19 18 18 19 18 18 21 23 23 22 23 24 23 23 23 23 23 23
13 12 11 10 10 9 9 9 9 9 10 10 10 11 10 9 8 9 10 9 8 10 11 11 11 11 11 11 12 12 11 11 11 9 7 6 7 9 11 13 14 15 15 16 16 15 15 14 14 14 15 16 16 15 13 12 12 12 12 14 15 16 17 18 18 19 20 19 18 18 18 17 19 22 23 22 21 21 21 22 23 24 24 23 24
11 11 11 10 9 8 8 8 8 8 8 8 9 10 10 9 8 9 10 9 8 9 11 11 11 11 12 13 13 13 12 11 10 9 6 6 8 10 11 12 11 11 12 12 13 14 15 15 14 14 15 15 16 16 15 13 11 11 11 12 14 14 15 16 17 18 19 18 18 18 17 17 20 23 23 22 21 20 20 21 22 24 24 24 23
10 10 10 10 9 8 8 8 8 8 7 7 8 9 9 8 8 9 10 9 8 9 10 11 10 10 12 13 13 13 11 10 10 9 7 7 8 11 11 11 11 11 11 11 12 13 14 14 14 14 15 15 15 16 16 13 12 11 11 12 13 14 14 14 15 16 17 16 16 17 17 18 20 22 24 24 23 22 22 22 21 22 23 24 23
9 9 9 8 9 9 8 7 7 7 7 8 8 8 8 6 6 8 10 10 9 8 9 10 10 10 11 13 13 12 11 10 10 9 8 8 9 10 11 11 12 12 12 13 13 13 14 15 15 15 16 15 16 16 14 12 11 11 11 12 13 13 12 13 15 16 15 15 16 18 18 17 18 21 25 28 28 27 26 25 22 21 22 24 24
8 8 7 7 7 8 7 6 7 7 7 8 9 9 7 6 6 8 8 8 8 7 7 8 10 10 11 12 13 12 11 10 9 8 8 9 9 10 10 10 12 12 13 14 15 15 16 16 16 17 17 16 17 17 13 11 10 11 11 11 11 11 12 14 16 16 15 15 16 17 16 16 17 20 25 29 31 31 29 28 25 24 23 23 23
7 7 6 6 6 6 6 7 8 8 8 9 9 9 7 6 6 7 8 8 8 7 7 8 10 10 11 12 13 11 10 9 9 9 9 9 10 10 10 10 11 12 13 15 17 17 17 17 17 18 17 17 17 16 13 10 10 11 11 11 11 12 14 16 17 17 16 16 17 17 16 18 20 24 27 30 32 31 30 28 26 24 22 21 21
7 7 7 7 7 7 8 9 9 9 10 10 9 8 7 6 7 8 8 8 8 8 8 9 10 10 10 12 11 10 9 9 9 9 9 10 10 11 10 10 11 12 14 16 17 17 18 18 19 18 18 17 18 16 13 10 10 11 11 11 11 13 16 18 18 18 18 18 18 20 22 25 28 30 31 31 30 29 29 28 26 22 21 20 21
7 7 8 8 9 9 10 10 10 10 10 9 8 7 6 8 8 8 8 8 8 9 9 10 11 10 11 11 12 11 10 9 9 10 10 10 10 11 11 11 12 13 14 15 15 16 17 18 19 19 18 18 17 17 15 13 11 10 10 11 14 17 19 20 20 21 21 21 23 26 29 31 33 33 32 31 29 27 27 26 23 21 21 22 23
6 7 8 9 9 9 10 10 10 10 9 9 9 8 7 9 9 9 8 8 8 9 10 11 11 11 11 12 13 12 11 10 11 11 11 11 12 13 14 14 15 15 15 15 16 16 16 17 18 18 19 18 18 17 17 15 13 10 11 14 17 20 21 22 23 24 25 25 27 30 31 33 34 34 33 33 30 27 24 23 23 23 24 25 25
6 7 8 8 9 9 10 10 10 9 9 10 10 9 8 9 9 8 8 8 9 10 10 11 11 12 12 13 13 12 12 12 13 13 13 13 14 14 14 14 15 16 17 18 18 17 16 15 16 17 18 19 19 18 18 17 16 14 15 18 20 22 23 24 24 25 25 27 28 30 32 33 34 35 35 33 29 25 24 27 29 28 25 24 24
6 7 8 8 8 8 9 9 9 9 9 10 10 9 8 9 9 8 8 9 9 10 10 11 11 12 12 13 13 13 13 14 14 14 14 14 14 13 12 13 14 16 18 18 18 18 17 16 16 17 17 18 19 19 18 18 18 18 19 20 21 23 24 25 26 26 26 27 28 30 31 33 34 34 35 34 31 28 28 30 31 29 25 23 23
6 7 8 7 7 7 8 8 8 8 9 9 8 8 8 8 8 8 8 9 10 10 10 11 12 13 13 14 14 14 14 14 14 14 14 14 13 13 13 15 18 19 19 19 18 18 18 17 17 18 19 19 20 19 18 18 18 19 20 21 22 23 24 25 26 27 27 28 28 30 31 31 32 33 35 35 34 33 32 31 30 29 26 23 22
6 7 7 6 6 7 7 8 8 8 8 8 9 9 8 7 8 8 9 9 9 10 11 12 13 14 14 13 13 13 14 14 14 14 14 14 14 14 15 18 19 19 19 20 20 19 18 17 18 19 20 20 19 19 19 19 20 21 22 23 23 23 23 24 25 26 27 27 29 30 31 31 31 32 33 34 33 33 32 31 31 30 27 22 21
6 6 6 6 7 7 8 8 8 8 8 9 10 9 8 7 8 9 9 9 10 11 13 14 14 13 12 12 13 14 14 15 15 15 14 14 14 15 17 18 17 18 20 22 23 21 19 18 18 18 18 19 19 19 20 21 22 23 24 24 23 23 23 23 24 25 25 26 28 29 30 32 33 33 33 33 32 32 32 31 30 29 26 22 22
7 8 9 9 10 10 9 9 9 9 8 8 9 8 7 7 8 9 9 11 13 13 12 12 12 11 12 13 14 15 15 15 15 15 14 14 15 16 17 18 18 19 22 24 24 22 20 19 19 17 16 16 17 19 20 22 23 24 24 24 23 23 22 23 24 24 24 25 26 28 29 31 32 33 33 31 30 29 29 28 26 25 24 23 23
8 9 10 10 10 10 11 11 10 10 9 8 8 7 7 8 9 8 9 11 13 12 11 11 12 12 13 14 14 15 15 15 15 15 15 15 16 16 17 19 21 23 24 24 23 21 19 18 18 16 16 16 17 18 20 22 23 23 23 22 22 22 23 23 24 24 23 23 25 27 28 29 30 30 30 29 27 25 25 24 23 22 22 21 22
Wind_Direction
212 214 216 217 219 222 226 227 226 228 231 234 239 245 252 258 259 259 259 258 256 256 260 264 266 265 265 264 263 262 258 253 253 255 259 264 268 272 273 273 272 272 271 270 269 271 274 274 273 277 279 272 265 264 272 286 293 293 298 303 303 304 300 285 276 286 298 307 312 314 318 320 318 315 314 314 315 314 316 321 323 322 322 319 312
213 215 216 217 219 223 226 227 228 230 234 237 239 242 247 254 259 261 261 260 259 260 264 267 270 272 273 272 270 268 266 262 261 261 262 264 266 269 272 274 274 274 274 273 272 273 275 274 272 276 281 279 273 267 266 273 282 287 288 289 292 296 296 291 286 288 299 308 314 316 319 323 322 320 319 316 315 315 315 318 321 323 325 323 315
217 216 216 218 221 223 227 229 232 234 236 238 239 239 242 247 254 258 260 262 261 260 263 265 268 271 273 274 273 271 271 269 267 267 266 266 267 267 270 273 275 276 276 276 276 274 274 273 273 276 282 284 283 279 273 273 279 284 285 284 286 292 296 292 286 283 292 302 307 309 314 317 318 320 320 316 314 315 314 316 318 321 324 324 319
219 218 217 219 221 223 227 230 234 237 238 239 239 238 240 243 248 252 256 260 260 259 262 263 263 264 266 269 272 273 273 272 271 270 268 268 268 267 268 272 276 278 278 278 278 276 273 273 274 277 282 286 289 289 284 280 283 288 293 291 288 293 299 296 291 288 288 293 299 303 308 310 310 314 316 315 314 314 313 314 316 319 323 325 325
218 220 220 221 221 223 226 229 232 236 239 242 242 240 240 243 246 248 250 254 257 259 262 264 265 263 263 265 269 272 272 271 271 271 271 270 269 269 270 272 276 279 280 281 280 278 275 274 275 278 282 287 290 292 291 286 285 288 293 295 294 297 300 300 299 298 294 293 298 303 307 308 308 310 312 313 314 314 313 314 317 321 328 332 333
214 220 221 222 223 225 227 229 231 234 238 243 246 246 245 245 247 248 250 252 254 258 262 266 269 269 268 269 269 271 272 270 270 271 272 272 271 271 271 272 275 278 280 282 282 281 279 277 278 279 282 286 289 292 294 291 289 290 290 292 293 294 297 300 301 301 300 299 300 303 307 309 309 310 311 313 312 311 314 319 325 331 335 336 338
207 216 224 226 226 227 228 230 232 234 236 239 243 246 247 248 249 251 253 254 255 257 260 265 270 274 276 275 274 273 273 271 271 271 271 272 271 271 271 272 274 276 277 279 280 281 280 278 279 280 280 282 284 287 290 290 291 292 292 294 294 293 296 300 301 299 298 299 299 300 303 305 307 308 310 312 311 311 316 321 327 334 337 337 337
207 212 223 228 228 227 226 228 230 232 234 237 239 242 245 247 251 252 254 255 255 256 257 259 265 274 279 280 278 276 274 272 272 271 272 271 270 270 271 271 273 273 273 275 278 279 280 278 277 278 278 278 280 283 285 287 288 289 291 294 294 294 296 297 298 297 295 294 295 297 299 300 303 306 309 312 312 314 319 318 316 323 330 331 332
211 211 217 223 226 228 226 225 227 231 234 237 239 242 243 246 249 251 252 253 254 254 255 256 260 267 274 279 280 278 275 273 273 274 274 273 271 270 270 270 271 272 272 273 276 278 279 278 277 276 278 279 280 282 283 284 286 285 287 290 290 291 293 293 293 293 292 291 292 295 296 296 300 303 305 307 308 310 313 310 309 315 320 321 325
211 206 210 218 224 228 228 225 227 230 233 236 239 241 243 245 247 248 248 249 250 251 252 254 257 262 267 272 275 276 275 275 276 276 276 275 274 272 270 270 271 271 272 273 275 277 278 278 278 277 278 279 280 282 284 285 285 285 287 288 287 287 287 288 289 288 287 286 287 290 289 289 295 299 299 303 306 306 305 304 305 311 314 316 320
202 196 196 204 214 221 223 224 227 229 228 230 233 235 238 240 240 238 238 239 241 244 246 248 252 258 261 265 270 274 276 276 277 277 277 276 275 272 271 272 271 271 271 272 274 277 278 279 279 278 278 279 279 280 282 283 284 285 287 287 287 286 284 283 284 285 283 281 283 284 280 282 292 297 298 302 306 305 304 303 302 304 307 307 310
170 171 171 177 192 200 205 210 213 215 215 216 221 225 226 226 225 224 224 228 233 238 242 243 246 254 258 260 264 270 277 281 280 277 275 273 273 272 272 272 272 272 272 272 274 276 277 279 279 279 280 281 281 282 282 283 284 284 284 285 285 286 285 283 283 283 281 279 279 280 279 281 289 295 297 301 304 305 304 301 299 297 297 294 290
119 121 128 139 151 160 169 177 180 187 196 201 207 211 215 220 222 225 228 232 238 246 252 252 251 258 266 264 260 263 273 283 284 280 277 274 271 271 270 271 272 273 274 274 274 276 277 279 280 281 283 284 284 285 286 288 288 287 286 285 284 284 286 286 287 286 283 279 275 278 284 285 285 292 300 301 299 299 298 297 298 296 293 291 289
93 95 100 108 113 115 119 125 128 133 148 164 172 176 186 198 205 218 232 241 249 260 269 272 272 273 279 282 272 262 263 269 272 275 278 278 273 268 268 269 270 272 274 275 276 277 278 279 280 282 285 286 286 287 289 290 292 291 290 288 286 286 286 286 287 287 286 282 277 280 289 291 289 295 302 300 295 294 294 294 296 296 293 292 292
86 89 91 96 98 96 95 99 103 102 103 107 109 113 123 128 125 121 107 94 89 66 285 276 281 285 285 287 285 279 278 274 271 269 270 275 277 273 270 271 271 272 274 275 276 277 278 279 280 282 284 285 286 288 291 293 293 292 291 290 290 290 288 286 286 286 287 287 284 286 292 295 295 298 301 300 297 297 296 293 293 295 293 293 293
82 85 88 93 96 94 92 92 93 93 92 90 87 84 86 93 96 95 96 100 97 81 70 66 57 44 351 307 297 307 344 323 295 280 273 271 275 279 279 277 276 276 276 275 274 273 273 274 276 279 282 285 288 291 294 295 293 291 290 290 291 291 291 291 291 289 289 289 288 290 292 295 296 298 300 301 300 301 298 292 292 294 291 288 289
75 77 82 89 94 93 92 89 87 87 86 86 84 82 79 82 87 91 93 100 100 83 71 71 71 70 69 60 49 39 10 347 324 301 286 276 276 284 289 290 290 288 286 283 279 275 273 272 273 276 279 282 286 289 290 289 287 287 289 291 292 292 292 294 295 294 294 292 291 291 292 293 293 292 294 295 295 296 292 285 289 292 286 280 280
69 73 78 86 92 94 93 89 86 87 88 88 90 89 83 81 85 91 92 91 88 83 79 78 75 72 71 63 55 50 37 18 2 334 306 291 287 291 296 300 302 299 296 293 291 290 287 283 281 281 281 283 285 285 285 284 282 284 287 289 290 290 290 294 297 297 297 296 294 293 291 290 289 288 288 288 287 287 282 281 287 288 279 273 274
67 73 79 83 88 90 90 87 86 88 90 91 92 92 88 85 88 92 92 90 88 85 85 83 78 74 72 65 55 49 45 37 27 21 21 358 323 310 306 307 311 312 310 306 303 303 305 304 300 296 292 291 291 290 289 287 285 286 287 288 287 287 290 294 296 296 296 295 294 292 290 288 287 285 285 284 283 282 281 282 285 283 277 276 277
68 75 83 86 87 89 88 89 91 92 92 93 93 92 91 90 92 93 92 91 88 84 81 78 73 68 66 62 57 51 48 45 37 33 36 38 28 3 333 322 323 323 323 320 315 313 313 313 309 304 301 298 296 296 296 295 293 293 293 291 289 290 293 295 293 291 291 290 289 288 287 285 284 283 283 284 284 283 283 283 284 282 279 277 276
72 77 86 93 98 101 100 100 100 98 96 95 93 90 88 87 87 86 83 80 78 76 75 73 69 65 63 62 61 59 55 50 43 38 38 40 39 33 21 13 2 341 330 326 321 316 314 313 311 309 308 305 302 300 299 297 295 294 293 292 291 293 295 295 294 293 290 288 288 287 286 285 285 284 284 285 285 286 286 286 287 285 281 278 276
81 82 87 93 97 100 100 99 96 94 93 93 90 86 85 84 83 80 75 69 65 65 67 70 71 71 70 66 62 64 65 55 47 45 45 44 43 41 37 32 23 10 1 352 342 332 321 315 310 306 304 303 302 301 299 296 294 292 292 292 291 292 294 294 294 295 292 291 291 289 287 287 287 287 287 288 289 290 291 290 290 289 285 282 279
91 91 93 95 95 94 93 90 87 85 84 84 83 81 80 79 77 74 71 67 63 60 60 65 69 71 71 67 65 68 68 58 51 53 55 50 45 42 40 36 30 25 21 14 6 356 341 327 315 305 300 298 297 298 298 297 297 297 297 297 296 296 296 296 296 295 293 292 291 288 287 288 288 288 290 291 292 294 294 292 292 291 289 287 285
96 97 99 101 99 96 92 87 83 79 76 75 76 76 75 74 72 69 66 64 63 61 59 60 62 64 63 61 62 66 62 53 51 54 56 52 46 42 39 35 30 26 23 18 11 2 349 336 323 309 300 296 292 290 292 296 299 300 299 298 298 297 298 299 301 301 298 293 289 287 288 290 290 291 294 296 296 296 295 293 293 293 292 292 290
96 99 102 106 106 103 98 93 89 84 80 79 79 78 76 72 68 64 61 60 58 58 56 55 55 56 55 54 57 59 55 53 55 57 57 53 49 44 38 33 28 24 22 20 12 1 350 341 333 321 310 304 300 301 306 308 308 307 305 301 297 298 303 305 307 310 307 300 294 292 291 292 294 296 298 299 298 297 296 296 297 297 297 297 298
102 105 109 114 115 112 106 101 97 93 90 88 87 83 78 74 69 64 60 59 59 57 54 51 50 51 51 53 58 61 60 62 63 61 57 51 46 40 35 32 28 26 25 23 15 8 7 9 11 10 6 3 2 1 1 359 351 346 343 339 332 331 332 328 323 321 316 310 305 301 299 301 303 303 304 303 300 298 300 300 299 299 300 301 301
103 107 112 116 115 111 109 107 104 100 95 91 87 82 77 75 73 67 62 61 61 59 55 51 49 50 53 58 63 65 65 63 59 54 50 45 40 38 36 33 29 28 28 25 19 19 24 28 31 31 31 32 31 27 23 19 14 9 5 358 353 351 350 341 329 322 319 316 312 308 308 311 311 310 311 308 303 302 305 304 299 297 300 302 299
98 100 105 110 110 107 106 105 103 99 93 88 83 80 77 76 74 71 67 64 63 63 61 60 60 58 59 63 66 65 61 55 49 45 42 39 38 38 37 34 31 30 29 26 22 22 22 22 24 24 23 23 20 18 16 15 13 12 9 5 2 359 359 354 341 331 329 326 321 316 314 313 311 310 311 308 304 307 309 307 301 296 298 298 292
97 96 98 101 101 102 102 101 100 97 93 88 84 81 79 78 77 75 73 69 67 66 67 69 70 68 64 62 61 60 57 52 45 41 37 36 35 34 33 32 31 30 29 24 22 23 24 23 22 18 14 11 7 5 3 359 358 357 357 0 2 359 0 3 358 350 347 344 338 333 328 323 319 317 315 310 307 309 309 305 301 298 296 291 283
100 98 97 96 96 97 97 96 96 95 92 90 90 88 84 81 79 78 77 76 73 73 73 71 69 66 63 61 57 55 53 48 44 41 39 37 34 31 29 28 25 25 23 18 19 25 29 28 25 19 14 9 4 1 358 354 351 347 346 352 356 354 354 356 353 351 351 348 342 340 339 337 333 330 326 319 314 313 309 303 299 296 292 286 280
101 99 96 94 92 92 92 90 89 88 86 84 85 87 85 83 79 77 79 81 81 78 76 73 68 62 58 56 54 53 48 42 37 34 34 34 33 31 29 27 25 23 18 14 20 28 31 29 25 17 14 12 7 2 357 353 351 346 344 347 350 350 350 348 346 347 348 343 339 339 340 339 337 334 331 327 323 321 316 305 297 291 288 284 280
100 97 94 91 88 85 84 82 80 79 77 73 69 68 68 70 70 69 73 80 83 79 74 71 69 63 54 48 46 45 43 39 34 26 22 24 28 29 28 28 28 25 19 19 28 34 32 29 26 18 13 12 7 1 356 352 349 348 346 345 345 346 345 343 343 344 343 340 339 339 338 338 337 333 330 330 330 330 326 316 303 292 287 284 280
96 90 88 86 83 78 75 74 73 72 71 69 66 61 56 55 56 59 66 75 78 74 68 63 59 55 51 47 43 39 37 37 36 29 24 25 29 31 30 30 29 25 23 28 35 36 32 29 26 20 16 12 4 358 354 350 347 347 346 344 342 341 339 340 342 342 342 341 341 339 338 338 337 335 335 337 338 337 336 332 325 316 307 300 294
102 94 88 85 79 73 71 71 72 73 73 72 70 67 64 61 55 55 60 63 58 55 54 54 50 45 43 42 42 41 41 38 34 31 29 30 31 30 29 32 32 28 29 34 37 35 30 28 24 18 14 10 3 358 354 349 347 345 342 340 339 338 337 340 342 342 342 341 341 340 340 341 343 346 346 344 341 339 337 336 334 331 327 323 319
111 107 98 88 80 74 70 70 72 73 73 72 71 70 69 66 61 59 60 56 47 42 43 45 45 41 37 34 32 32 32 28 25 26 27 29 29 25 25 30 32 30 29 31 33 31 28 24 19 14 10 5 0 357 352 348 346 343 339 337 337 336 337 339 340 340 340 339 339 338 339 341 346 349 346 341 339 336 333 330 329 328 326 325 323
102 97 90 84 79 75 71 70 73 74 70 67 69 70 68 66 64 62 61 58 50 42 39 39 38 36 37 34 26 19 16 16 17 18 20 26 30 28 28 31 31 28 25 26 24 21 17 12 8 7 5 1 357 354 348 343 339 337 335 334 334 334 336 337 336 336 337 336 335 335 335 338 342 343 340 336 334 332 329 326 324 322 321 321 320
88 83 79 77 74 73 76 77 76 73 66 63 66 68 67 65 62 59 56 55 51 44 40 37 31 26 28 29 23 16 15 17 19 20 22 31 33 30 30 31 28 23 21 19 14 8 3 359 357 358 357 354 352 350 345 339 330 326 327 329 330 331 333 332 332 334 333 331 331 331 330 332 335 337 336 334 330 328 327 325 322 320 319 320 320
80 76 72 67 65 71 81 80 68 57 54 59 64 65 63 63 61 58 56 54 49 42 38 35 29 22 20 21 19 18 20 23 27 30 31 28 23 18 17 18 16 12 9 5 0 357 354 352 351 352 351 349 347 345 341 334 326 322 323 325 326 327 328 327 329 332 332 329 329 329 327 326 328 332 334 333 329 325 325 324 322 321 320 321 320
83 81 75 65 59 64 73 72 54 45 49 58 61 62 64 66 63 58 55 52 46 37 32 29 26 24 21 17 14 15 17 19 23 25 21 13 5 0 359 0 1 358 354 351 350 350 349 349 349 348 347 345 343 340 335 326 321 320 321 322 323 324 326 327 327 328 326 324 324 325 323 321 322 328 333 333 330 326 324 323 320 318 317 316 315
86 80 71 56 48 54 63 60 48 45 53 57 57 61 70 72 61 53 50 44 36 30 28 23 21 21 18 11 7 9 12 10 5 1 360 355 350 347 347 349 351 350 347 344 344 343 342 342 343 343 342 341 340 337 330 320 317 317 317 319 321 322 323 324 324 324 321 318 318 320 319 317 319 323 327 329 329 328 327 324 321 317 315 311 308
69 59 51 45 46 55 62 56 51 53 59 59 59 63 67 61 45 39 36 28 22 22 22 18 15 12 8 3 2 5 9 5 357 352 352 350 345 342 341 342 344 344 341 337 337 336 336 336 337 337 337 337 336 332 326 318 317 317 317 318 318 317 318 320 322 322 319 316 315 314 313 314 317 319 321 324 327 328 327 326 322 317 314 311 308
42 40 45 52 59 65 63 59 60 63 63 60 59 59 54 43 36 32 28 23 19 15 10 7 5 1 0 1 0 357 356 357 353 346 343 345 344 342 340 338 338 337 334 332 332 332 331 331 331 330 331 332 332 329 324 318 317 317 316 316 316 316 318 319 320 320 319 316 314 314 314 317 320 321 322 323 324 323 324 325 322 316 312 313 313
39 50 61 66 68 68 64 62 62 63 60 55 51 48 42 39 37 35 29 21 12 3 358 356 352 348 349 355 356 348 339 339 340 336 332 334 338 338 336 335 333 330 328 330 332 332 329 326 325 325 326 328 329 327 322 318 315 313 312 313 315 318 320 320 321 322 321 317 316 317 319 321 322 322 322 321 319 318 319 320 318 313 312 313 313
53 70 76 76 73 69 66 64 63 62 57 50 45 44 41 34 31 27 21 11 1 354 350 348 344 340 338 342 346 343 333 329 330 329 325 323 324 325 325 324 323 324 326 329 330 330 327 322 319 319 321 323 324 324 321 317 312 309 309 312 315 319 322 322 322 322 321 319 318 320 321 321 321 320 320 319 318 315 312 311 310 309 309 308 307
68 79 79 77 76 72 69 65 60 53 44 37 38 40 35 26 21 17 10 2 354 348 345 343 340 337 333 332 334 332 327 324 323 321 319 317 317 318 320 319 319 322 324 324 324 324 323 319 315 313 314 316 318 318 316 314 312 311 312 313 315 318 320 322 321 320 319 319 319 319 319 319 319 318 317 316 314 308 305 307 310 309 305 303 303
80 85 82 79 77 72 63 57 51 40 30 30 33 31 24 19 16 11 5 359 351 346 344 344 342 339 334 331 329 325 322 320 317 315 314 314 315 318 321 322 323 324 322 320 320 321 321 319 314 310 308 308 310 310 310 309 310 311 311 312 313 315 317 319 319 318 318 318 318 317 317 316 315 314 314 313 309 305 303 306 309 307 303 300 300
98 99 94 86 80 67 52 45 42 35 29 29 30 24 18 16 14 10 5 358 352 348 347 345 343 340 334 330 326 323 320 318 317 316 317 318 319 321 323 324 325 324 320 319 320 319 317 316 315 312 308 306 306 306 304 303 304 306 307 308 309 311 312 314 313 313 315 316 315 315 315 312 309 310 311 311 309 306 304 304 304 303 300 296 295
108 106 97 83 70 55 41 35 34 29 25 24 22 17 15 13 9 7 5 357 349 344 340 338 338 335 331 329 327 324 322 320 318 317 318 318 318 320 323 325 326 325 324 324 324 321 315 312 310 308 306 305 304 302 300 300 302 303 304 305 307 307 308 308 308 309 311 312 311 311 312 310 306 305 306 306 306 305 302 300 300 301 300 295 293
106 100 88 75 63 50 38 32 28 21 15 13 11 10 12 11 5 4 4 357 346 338 334 333 334 332 330 331 330 327 324 322 319 317 316 317 319 323 326 327 326 326 326 327 326 323 316 310 306 304 303 301 299 298 298 300 302 303 304 305 306 306 306 306 306 306 307 308 307 307 308 308 307 306 304 303 303 303 300 298 298 299 297 294 293
99 90 83 77 69 58 47 40 32 21 14 12 11 11 12 8 2 359 357 353 347 342 337 335 336 335 333 332 331 328 325 323 322 322 324 325 326 327 328 327 325 325 325 325 324 320 315 310 307 305 303 300 298 297 298 299 301 303 305 306 307 306 306 306 306 306 307 306 305 305 306 306 307 306 304 301 300 300 299 298 296 295 293 293 295
96 90 83 76 68 58 50 44 37 28 19 16 15 14 9 2 355 351 349 347 346 345 342 339 337 334 330 328 328 326 324 323 323 324 325 326 328 331 330 328 326 325 324 324 322 318 314 311 309 307 305 305 303 301 300 300 301 303 305 306 307 307 307 307 307 308 308 307 305 306 306 306 305 305 304 302 299 296 295 293 292 291 291 293 295